| time (UTC) | temp F | wind direction | speed MPH | gust MPH | rain 1hr in | rain 24hr in | rain mn in | humidity % | barometer mb |
| 20260506013535 | 47 | 0.0 | 0.0 | 0.00 | 0.00 | 0.00 | |||
| 20260506012515 | 47 | 306 | 0.0 | 2.0 | 0.00 | 0.00 | 0.00 | ||
| 20260506011535 | 47 | 0.0 | 0.0 | 0.00 | 0.00 | 0.00 | |||
| 20260506010515 | 47 | 0.0 | 0.0 | 0.00 | 0.00 | 0.00 | |||
| 20260506005615 | 47 | 0.0 | 0.0 | 0.00 | 0.00 | 0.00 | |||
| 20260506004535 | 47 | 0.0 | 0.0 | 0.00 | 0.00 | 0.00 | |||
| 20260506003615 | 47 | 360 | 1.0 | 5.0 | 0.00 | 0.00 | 0.00 | ||
| 20260506002515 | 47 | 0.0 | 0.0 | 0.00 | 0.00 | 0.00 | |||
| 20260506001555 | 47 | 358 | 1.0 | 4.0 | 0.00 | 0.00 | 0.00 | ||
| 20260506000517 | 47 | 352 | 0.0 | 2.0 | 0.00 | 0.00 | 0.00 | ||
| 20260505235535 | 47 | 0.0 | 0.0 | 0.00 | 0.00 | 0.00 | |||
| 20260505234615 | 47 | 0.0 | 0.0 | 0.00 | 0.00 | 0.00 | |||
| 20260505233535 | 47 | 354 | 1.0 | 5.0 | 0.00 | 0.00 | 0.00 | ||
| 20260505232535 | 48 | 344 | 0.0 | 3.0 | 0.00 | 0.00 | 0.00 | ||
| 20260505231555 | 48 | 356 | 1.0 | 5.0 | 0.00 | 0.00 | 0.00 | ||
| 20260505230515 | 48 | 2 | 1.0 | 4.0 | 0.00 | 0.00 | 0.00 | ||
| 20260505225535 | 48 | 0.0 | 0.0 | 0.00 | 0.00 | 0.00 | |||
| 20260505224555 | 48 | 0.0 | 0.0 | 0.00 | 0.00 | 0.00 | |||
| 20260505223515 | 48 | 358 | 1.0 | 5.0 | 0.00 | 0.00 | 0.00 | ||
| 20260505221555 | 48 | 2 | 1.0 | 7.0 | 0.00 | 0.00 | 0.00 | ||
| 20260505220518 | 49 | 354 | 2.0 | 6.0 | 0.00 | 0.00 | 0.00 | ||
| 20260505215535 | 49 | 360 | 1.0 | 5.0 | 0.00 | 0.00 | 0.00 | ||
| 20260505214515 | 49 | 3 | 1.0 | 10.0 | 0.00 | 0.00 | 0.00 | ||
| 20260505213515 | 49 | 6 | 2.0 | 5.0 | 0.00 | 0.00 | 0.00 | ||
| 20260505212535 | 49 | 1 | 1.0 | 7.0 | 0.00 | 0.00 | 0.00 | ||
| 20260505211515 | 50 | 4 | 3.0 | 7.0 | 0.00 | 0.00 | 0.00 | ||
| 20260505210515 | 50 | 18 | 3.0 | 8.0 | 0.00 | 0.00 | 0.00 | ||
| 20260505205515 | 51 | 12 | 3.0 | 7.0 | 0.00 | 0.00 | 0.00 | ||
| 20260505204515 | 51 | 358 | 3.0 | 6.0 | 0.00 | 0.00 | 0.00 | ||
| 20260505203535 | 52 | 12 | 2.0 | 7.0 | 0.00 | 0.00 | 0.00 | ||
| 20260505202535 | 52 | 7 | 2.0 | 6.0 | 0.00 | 0.00 | 0.00 | ||
| 20260505201535 | 52 | 3 | 3.0 | 7.0 | 0.00 | 0.00 | 0.00 | ||
| 20260505200515 | 52 | 8 | 4.0 | 9.0 | 0.00 | 0.00 | 0.00 | ||
| 20260505195615 | 53 | 4 | 2.0 | 6.0 | 0.00 | 0.00 | 0.00 | ||
| 20260505194515 | 53 | 12 | 2.0 | 7.0 | 0.00 | 0.00 | 0.00 | ||
| 20260505193515 | 53 | 13 | 4.0 | 11.0 | 0.00 | 0.00 | 0.00 | ||
| 20260505192535 | 53 | 11 | 3.0 | 7.0 | 0.00 | 0.00 | 0.00 | ||
| 20260505191515 | 54 | 11 | 3.0 | 7.0 | 0.00 | 0.00 | 0.00 | ||
| 20260505190515 | 54 | 35 | 1.0 | 5.0 | 0.00 | 0.00 | 0.00 | ||
| 20260505185635 | 55 | 22 | 2.0 | 7.0 | 0.00 | 0.00 | 0.00 | ||
| 20260505184535 | 55 | 18 | 3.0 | 7.0 | 0.00 | 0.00 | 0.00 | ||
| 20260505183515 | 56 | 12 | 2.0 | 7.0 | 0.00 | 0.00 | 0.00 | ||
| 20260505182515 | 57 | 17 | 2.0 | 8.0 | 0.00 | 0.00 | 0.00 | ||
| 20260505181515 | 57 | 17 | 2.0 | 6.0 | 0.00 | 0.00 | 0.00 | ||
| 20260505180535 | 59 | 27 | 2.0 | 5.0 | 0.00 | 0.00 | 0.00 | ||
| 20260505175535 | 59 | 27 | 2.0 | 8.0 | 0.00 | 0.00 | 0.00 | ||
| 20260505174635 | 58 | 31 | 3.0 | 7.0 | 0.00 | 0.00 | 0.00 | ||
| 20260505173555 | 58 | 20 | 3.0 | 7.0 | 0.00 | 0.00 | 0.00 | ||
| 20260505172515 | 58 | 40 | 2.0 | 7.0 | 0.00 | 0.00 | 0.00 | ||
| 20260505171555 | 59 | 41 | 1.0 | 8.0 | 0.00 | 0.00 | 0.00 | ||
| 20260505170515 | 59 | 30 | 3.0 | 7.0 | 0.00 | 0.00 | 0.00 | ||
| 20260505165515 | 59 | 50 | 1.0 | 5.0 | 0.00 | 0.00 | 0.00 | ||
| 20260505164555 | 60 | 23 | 2.0 | 6.0 | 0.00 | 0.00 | 0.00 | ||
| 20260505163555 | 61 | 41 | 2.0 | 8.0 | 0.00 | 0.00 | 0.00 | ||
| 20260505162535 | 61 | 46 | 2.0 | 7.0 | 0.00 | 0.00 | 0.00 | ||
| 20260505161555 | 62 | 31 | 3.0 | 8.0 | 0.00 | 0.00 | 0.00 | ||
| 20260505160535 | 63 | 47 | 1.0 | 4.0 | 0.00 | 0.00 | 0.00 | ||
| 20260505152515 | 63 | 82 | 1.0 | 6.0 | 0.00 | 0.00 | 0.00 | ||
| 20260505151515 | 64 | 72 | 1.0 | 7.0 | 0.00 | 0.00 | 0.00 | ||
| 20260505150515 | 65 | 57 | 2.0 | 7.0 | 0.00 | 0.00 | 0.00 | ||
| 20260505140515 | 65 | 122 | 4.0 | 12.0 | 0.00 | 0.00 | 0.00 | ||
| 20260505124555 | 65 | 86 | 1.0 | 6.0 | 0.00 | 0.00 | 0.00 | ||
| 20260505123515 | 65 | 72 | 1.0 | 5.0 | 0.00 | 0.00 | 0.00 | ||
| 20260505122515 | 65 | 36 | 2.0 | 8.0 | 0.00 | 0.00 | 0.00 | ||
| 20260505115515 | 64 | 45 | 3.0 | 8.0 | 0.00 | 0.00 | 0.00 | ||
| 20260505114535 | 65 | 63 | 2.0 | 6.0 | 0.00 | 0.00 | 0.00 | ||
| 20260505113515 | 64 | 65 | 3.0 | 9.0 | 0.00 | 0.00 | 0.00 | ||
| 20260505112555 | 64 | 53 | 3.0 | 8.0 | 0.00 | 0.00 | 0.00 | ||
| 20260505111515 | 63 | 65 | 2.0 | 8.0 | 0.00 | 0.00 | 0.00 | ||
| 20260505110535 | 64 | 66 | 3.0 | 11.0 | 0.00 | 0.00 | 0.00 | ||
| 20260505101535 | 62 | 56 | 2.0 | 7.0 | 0.00 | 0.00 | 0.00 | ||
| 20260505100615 | 61 | 65 | 2.0 | 7.0 | 0.00 | 0.00 | 0.00 | ||
| 20260505095515 | 60 | 30 | 3.0 | 7.0 | 0.00 | 0.00 | 0.00 | ||
| 20260505094515 | 60 | 16 | 2.0 | 7.0 | 0.00 | 0.00 | 0.00 | ||
| 20260505093515 | 59 | 30 | 2.0 | 9.0 | 0.00 | 0.00 | 0.00 | ||
| 20260505092515 | 58 | 6 | 3.0 | 9.0 | 0.00 | 0.00 | 0.00 | ||
| 20260505091535 | 58 | 5 | 1.0 | 9.0 | 0.00 | 0.00 | 0.00 | ||
| 20260505090535 | 57 | 15 | 3.0 | 8.0 | 0.00 | 0.00 | 0.00 | ||
| 20260505085515 | 57 | 40 | 2.0 | 7.0 | 0.00 | 0.00 | 0.00 | ||
| 20260505084515 | 57 | 28 | 3.0 | 8.0 | 0.00 | 0.00 | 0.00 | ||
| 20260505083515 | 56 | 14 | 2.0 | 7.0 | 0.00 | 0.00 | 0.00 | ||
| 20260505082515 | 56 | 5 | 2.0 | 6.0 | 0.00 | 0.00 | 0.00 | ||
| 20260505081535 | 55 | 352 | 1.0 | 7.0 | 0.00 | 0.00 | 0.00 | ||
| 20260505080515 | 54 | 24 | 3.0 | 8.0 | 0.00 | 0.00 | 0.00 | ||
| 20260505075515 | 53 | 8 | 4.0 | 8.0 | 0.00 | 0.00 | 0.00 | ||
| 20260505074535 | 53 | 8 | 3.0 | 8.0 | 0.00 | 0.00 | 0.00 | ||
| 20260505073515 | 52 | 9 | 3.0 | 10.0 | 0.00 | 0.00 | 0.00 | ||
| 20260505072535 | 51 | 9 | 2.0 | 5.0 | 0.00 | 0.00 | 0.00 | ||
| 20260505071515 | 51 | 14 | 3.0 | 9.0 | 0.00 | 0.00 | 0.00 | ||
| 20260505070515 | 50 | 11 | 3.0 | 7.0 | 0.00 | 0.00 | 0.00 | ||
| 20260505065555 | 50 | 14 | 3.0 | 7.0 | 0.00 | 0.00 | 0.00 | ||
| 20260505064515 | 49 | 16 | 2.0 | 5.0 | 0.00 | 0.00 | 0.00 | ||
| 20260505063555 | 48 | 17 | 4.0 | 7.0 | 0.00 | 0.00 | 0.00 | ||
| 20260505062515 | 48 | 11 | 4.0 | 10.0 | 0.00 | 0.00 | 0.00 | ||
| 20260505061535 | 48 | 6 | 3.0 | 8.0 | 0.00 | 0.00 | 0.00 | ||
| 20260505060515 | 47 | 9 | 3.0 | 7.0 | 0.00 | 0.00 | 0.00 | ||
| 20260505055515 | 46 | 4 | 2.0 | 6.0 | 0.00 | 0.00 | 0.00 | ||
| 20260505054555 | 46 | 0.0 | 0.0 | 0.00 | 0.00 | 0.00 | |||
| 20260505053515 | 45 | 0.0 | 0.0 | 0.00 | 0.00 | 0.00 | |||
| 20260505052515 | 45 | 0.0 | 0.0 | 0.00 | 0.00 | 0.00 | |||
| 20260505051515 | 44 | 0.0 | 0.0 | 0.00 | 0.00 | 0.00 | |||
| 20260505050535 | 44 | 0.0 | 0.0 | 0.00 | 0.00 | 0.00 | |||
| 20260505041516 | 44 | 4 | 0.0 | 1.0 | 0.00 | 0.00 | 0.00 | ||
| 20260505040635 | 45 | 0.0 | 0.0 | 0.00 | 0.00 | 0.00 | |||
| 20260505035515 | 45 | 0.0 | 0.0 | 0.00 | 0.00 | 0.00 | |||
| 20260505034515 | 45 | 0.0 | 0.0 | 0.00 | 0.00 | 0.00 | |||
| 20260505033515 | 44 | 0.0 | 0.0 | 0.00 | 0.00 | 0.00 | |||
| 20260505032555 | 44 | 0.0 | 0.0 | 0.00 | 0.00 | 0.00 | |||
| 20260505031515 | 44 | 0.0 | 0.0 | 0.00 | 0.00 | 0.00 | |||
| 20260505030515 | 44 | 0.0 | 0.0 | 0.00 | 0.00 | 0.00 | |||
| 20260505025515 | 44 | 0.0 | 0.0 | 0.00 | 0.00 | 0.00 | |||
| 20260505024516 | 44 | 0.0 | 0.0 | 0.00 | 0.00 | 0.00 | |||
| 20260505023615 | 44 | 0.0 | 0.0 | 0.00 | 0.00 | 0.00 | |||
| 20260505022515 | 44 | 0.0 | 0.0 | 0.00 | 0.00 | 0.00 | |||
| 20260505021515 | 44 | 0.0 | 0.0 | 0.00 | 0.00 | 0.00 | |||
| 20260505020515 | 45 | 0.0 | 0.0 | 0.00 | 0.00 | 0.00 | |||
| 20260505015515 | 46 | 0.0 | 0.0 | 0.00 | 0.00 | 0.00 | |||
| 20260505014555 | 46 | 0.0 | 0.0 | 0.00 | 0.00 | 0.00 |